Weather History for KUAO - October, 2011

Change the Weather History Date:

Tuesday, October 4, 2011

  Actual Average Record
Temperature  
Mean Temperature 57 °F -  
Max Temperature 64 °F - 84 °F (2001)
Min Temperature 49 °F - 39 °F (1999)
Degree Days  
Heating Degree Days 8    
Month to date heating degree days 28  
Since 1 July heating degree days 128  
Cooling Degree Days 0    
Month to date cooling degree days 0  
Year to date cooling degree days 271  
Growing Degree Days 7 (Base 50)    
Moisture  
Dew Point 49 °F    
Average Humidity 74    
Maximum Humidity 100    
Minimum Humidity 48    
Precipitation  
Precipitation 0.32 in - 0.56 in (1997)
Month to date precipitation 0.70  
Year to date precipitation 27.78  
Sea Level Pressure  
Sea Level Pressure 29.65 in    
Wind  
Wind Speed 6 mph (SSE)    
Max Wind Speed 22 mph    
Max Gust Speed 28 mph    
Visibility 10 miles    
Events Rain    
T = Trace of Precipitation, MM = Missing Value Source: NWS Daily Summary

Daily Weather History Graph

Daily Weather History Graph

Search for Another Location

Airport or City:

Trip Planner

Search our weather history database for the weather conditions in past years. The results will help you decide how hot, cold, wet, or windy it might be!

Date:

Astronomy

Oct. 04, 2011 Rise Set
Actual Time 7:12 AM PDT 6:46 PM PDT
Civil Twilight 6:43 AM PDT 7:15 PM PDT
Nautical Twilight 6:09 AM PDT 7:49 PM PDT
Astronomical Twilight 5:34 AM PDT 8:24 PM PDT
Moon 3:09 PM PDT (10/4) No Moon Set
Length of Visible Light 12h 32m
Length of Day
11h 33m
First Quarter, 57% of the Moon is Illuminated
Oct 4
First Quarter
Oct 11
Full
Oct 19
Last Quarter
Oct 26
New
Nov 2
First Quarter

Hourly Weather History & Observations

Time (PDT) Temp. Dew Point Humidity Pressure Visibility Wind Dir Wind Speed Gust Speed Precip Events Conditions
12:53 AM 52.0 °F 51.1 °F 97% 29.84 in 10.0 mi South 4.6 mph - N/A   Overcast
1:53 AM 52.0 °F 50.0 °F 93% 29.83 in 10.0 mi Calm Calm - 0.00 in   Mostly Cloudy
2:53 AM 50.0 °F 48.9 °F 96% 29.82 in 9.0 mi Calm Calm - N/A   Scattered Clouds
4:53 AM 52.0 °F 48.9 °F 89% 29.80 in 10.0 mi SSE 5.8 mph - N/A   Overcast
5:53 AM 52.0 °F 48.9 °F 89% 29.79 in 10.0 mi South 5.8 mph - N/A   Overcast
6:53 AM 53.1 °F 48.0 °F 83% 29.78 in 10.0 mi SSE 6.9 mph - 0.00 in Rain Light Rain
7:53 AM 52.0 °F 48.0 °F 86% 29.78 in 10.0 mi SSE 4.6 mph - 0.00 in   Overcast
8:53 AM 53.1 °F 48.0 °F 83% 29.75 in 10.0 mi SE 5.8 mph - N/A   Overcast
9:53 AM 55.9 °F 48.0 °F 75% 29.72 in 10.0 mi SSE 5.8 mph - 0.01 in   Scattered Clouds
11:53 AM 63.0 °F 46.0 °F 54% 29.66 in 10.0 mi SSW 13.8 mph 23.0 mph N/A   Scattered Clouds
12:53 PM 63.0 °F 43.0 °F 48% 29.63 in 10.0 mi SSW 13.8 mph 24.2 mph N/A   Scattered Clouds
1:53 PM 64.0 °F 45.0 °F 50% 29.59 in 10.0 mi SSW 8.1 mph 17.3 mph N/A   Partly Cloudy
3:53 PM 59.0 °F 46.9 °F 64% 29.55 in 10.0 mi South 3.5 mph - 0.00 in Rain Light Rain
4:53 PM 57.0 °F 50.0 °F 77% 29.54 in 10.0 mi Calm Calm - 0.01 in Rain Light Rain
5:53 PM 55.0 °F 50.0 °F 83% 29.53 in 6.0 mi SSW 8.1 mph - 0.08 in Rain Rain
6:53 PM 54.0 °F 51.1 °F 90% 29.52 in 8.0 mi SE 5.8 mph - 0.08 in Rain Light Rain
7:53 PM 53.1 °F 52.0 °F 96% 29.51 in 8.0 mi East 3.5 mph - 0.05 in Rain Rain
8:53 PM 53.1 °F 51.1 °F 93% 29.48 in 10.0 mi East 5.8 mph - 0.04 in Rain Light Rain
9:53 PM 53.1 °F 51.1 °F 93% 29.46 in 10.0 mi East 3.5 mph - 0.01 in   Overcast
10:53 PM 52.0 °F 50.0 °F 93% 29.47 in 8.0 mi SW 5.8 mph - 0.03 in Rain Light Rain